TimeCDT,TemperatureF,Dew PointF,Humidity,Sea Level PressureIn,VisibilityMPH,Wind Direction,Wind SpeedMPH,Gust SpeedMPH,PrecipitationIn,Events,Conditions,WindDirDegrees,DateUTC
12:53 AM,53.1,41.0,64,30.16,10.0,NE,10.4,-,N/A,,Clear,50,2013-05-23 05:53:00
1:53 AM,46.0,39.9,79,30.19,10.0,North,5.8,-,N/A,,Clear,350,2013-05-23 06:53:00
2:53 AM,45.0,39.9,82,30.20,10.0,North,8.1,-,N/A,,Clear,10,2013-05-23 07:53:00
3:53 AM,45.0,39.9,82,30.22,10.0,NNE,9.2,-,N/A,,Clear,30,2013-05-23 08:53:00
4:53 AM,46.9,39.0,74,30.25,10.0,NE,10.4,-,N/A,,Clear,50,2013-05-23 09:53:00
5:53 AM,45.0,37.9,76,30.27,10.0,NE,8.1,-,N/A,,Partly Cloudy,50,2013-05-23 10:53:00
6:53 AM,46.0,37.9,73,30.29,10.0,ENE,8.1,-,N/A,,Partly Cloudy,70,2013-05-23 11:53:00
7:53 AM,48.9,36.0,61,30.30,10.0,East,9.2,-,N/A,,Partly Cloudy,80,2013-05-23 12:53:00
8:53 AM,52.0,35.1,53,30.32,10.0,East,10.4,-,N/A,,Partly Cloudy,100,2013-05-23 13:53:00
9:53 AM,54.0,35.1,49,30.32,10.0,East,9.2,-,N/A,,Partly Cloudy,100,2013-05-23 14:53:00
10:53 AM,57.0,34.0,42,30.33,10.0,Variable,5.8,-,N/A,,Partly Cloudy,0,2013-05-23 15:53:00
11:53 AM,60.1,33.1,36,30.32,10.0,ENE,11.5,17.3,N/A,,Partly Cloudy,60,2013-05-23 16:53:00
12:53 PM,61.0,30.9,32,30.32,10.0,NE,9.2,-,N/A,,Partly Cloudy,50,2013-05-23 17:53:00
1:53 PM,61.0,30.9,32,30.31,10.0,NE,6.9,17.3,N/A,,Partly Cloudy,50,2013-05-23 18:53:00
2:53 PM,64.0,30.0,28,30.30,10.0,NE,9.2,-,N/A,,Partly Cloudy,50,2013-05-23 19:53:00
3:53 PM,64.0,27.0,25,30.28,10.0,East,9.2,17.3,N/A,,Clear,90,2013-05-23 20:53:00
4:53 PM,66.0,27.0,23,30.27,10.0,East,9.2,-,N/A,,Clear,100,2013-05-23 21:53:00
5:53 PM,66.0,27.0,23,30.26,10.0,ENE,8.1,-,N/A,,Clear,70,2013-05-23 22:53:00
6:53 PM,66.0,27.0,23,30.25,10.0,ESE,8.1,-,N/A,,Clear,110,2013-05-23 23:53:00
7:53 PM,64.0,30.0,28,30.24,10.0,ESE,9.2,-,N/A,,Clear,110,2013-05-24 00:53:00
8:53 PM,59.0,30.9,35,30.24,10.0,ESE,8.1,-,N/A,,Partly Cloudy,120,2013-05-24 01:53:00
9:53 PM,55.0,30.9,40,30.25,10.0,East,6.9,-,N/A,,Clear,100,2013-05-24 02:53:00
10:53 PM,53.1,30.9,43,30.26,10.0,ESE,6.9,-,N/A,,Clear,110,2013-05-24 03:53:00
11:53 PM,52.0,30.9,45,30.26,10.0,SE,6.9,-,N/A,,Clear,130,2013-05-24 04:53:00